TimeEDT,TemperatureF,Dew PointF,Humidity,Sea Level PressureIn,VisibilityMPH,Wind Direction,Wind SpeedMPH,Gust SpeedMPH,PrecipitationIn,Events,Conditions,WindDirDegrees,DateUTC
12:53 AM,73.0,69.1,87,30.07,10.0,Calm,Calm,-,N/A,,Clear,0,2013-06-24 04:53:00
1:53 AM,72.0,69.1,91,30.06,10.0,Calm,Calm,-,N/A,,Clear,0,2013-06-24 05:53:00
2:53 AM,72.0,69.1,91,30.06,10.0,Calm,Calm,-,N/A,,Clear,0,2013-06-24 06:53:00
3:53 AM,71.1,69.1,93,30.06,10.0,Calm,Calm,-,N/A,,Clear,0,2013-06-24 07:53:00
4:53 AM,71.1,69.1,93,30.05,10.0,SW,3.5,-,N/A,,Clear,220,2013-06-24 08:53:00
5:53 AM,70.0,69.1,97,30.06,7.0,SSW,3.5,-,N/A,,Partly Cloudy,200,2013-06-24 09:53:00
6:53 AM,71.1,69.1,93,30.06,8.0,SSW,3.5,-,N/A,,Clear,210,2013-06-24 10:53:00
7:53 AM,73.9,70.0,87,30.07,10.0,SSW,4.6,-,N/A,,Clear,200,2013-06-24 11:53:00
8:53 AM,77.0,70.0,79,30.07,10.0,Variable,3.5,-,N/A,,Clear,0,2013-06-24 12:53:00
9:53 AM,82.9,68.0,60,30.06,10.0,Variable,3.5,-,N/A,,Clear,0,2013-06-24 13:53:00
10:53 AM,86.0,68.0,55,30.06,10.0,Calm,Calm,-,N/A,,Clear,0,2013-06-24 14:53:00
11:53 AM,88.0,69.1,53,30.05,10.0,Variable,4.6,-,N/A,,Clear,0,2013-06-24 15:53:00
12:53 PM,89.1,70.0,53,30.04,10.0,SW,9.2,-,N/A,,Clear,220,2013-06-24 16:53:00
1:53 PM,88.0,68.0,51,30.01,10.0,SW,5.8,-,N/A,,Scattered Clouds,220,2013-06-24 17:53:00
2:53 PM,88.0,64.9,46,29.99,10.0,Variable,4.6,-,N/A,,Scattered Clouds,0,2013-06-24 18:53:00
3:53 PM,91.0,64.9,42,29.97,10.0,SW,6.9,-,N/A,,Clear,220,2013-06-24 19:53:00
4:53 PM,89.1,66.0,46,29.96,10.0,South,5.8,-,N/A,,Partly Cloudy,190,2013-06-24 20:53:00
5:53 PM,86.0,66.9,53,29.95,10.0,Variable,6.9,-,N/A,Thunderstorm,Clear,0,2013-06-24 21:53:00
6:53 PM,80.1,64.9,60,30.00,10.0,Variable,6.9,-,N/A,Thunderstorm,Mostly Cloudy,0,2013-06-24 22:53:00
7:09 PM,80.6,64.4,58,30.01,10.0,Calm,Calm,-,N/A,,Partly Cloudy,0,2013-06-24 23:09:00
7:53 PM,75.9,68.0,76,30.01,10.0,Calm,Calm,-,N/A,,Clear,0,2013-06-24 23:53:00
8:53 PM,73.0,66.9,81,30.02,10.0,Calm,Calm,-,0.00,Rain,Light Rain,0,2013-06-25 00:53:00
9:53 PM,70.0,66.9,90,30.02,10.0,Calm,Calm,-,0.00,,Clear,0,2013-06-25 01:53:00
10:53 PM,69.1,66.0,90,30.02,10.0,SSW,4.6,-,N/A,,Clear,210,2013-06-25 02:53:00
11:53 PM,71.1,64.9,81,30.01,10.0,Calm,Calm,-,N/A,,Clear,0,2013-06-25 03:53:00